Saint Simons Island, GA

1:08 AM EST on December 08, 2019 (GMT -0500)
McKinnon

Weather History for KSSI - October, 2019

Change the Weather History Date:

Monday, October 14, 2019

  Actual Average Record
Temperature  
Mean Temperature 79 °F 71 °F  
Max Temperature 87 °F 78 °F 90 °F (1986)
Min Temperature 71 °F 63 °F 43 °F (1977)
Degree Days  
Heating Degree Days 0 1  
Month to date heating degree days 0 4  
Since 1 July heating degree days 0 4  
Cooling Degree Days 14 6  
Month to date cooling degree days 193 113  
Year to date cooling degree days 3180 2484  
Growing Degree Days 30 (Base 50)    
Moisture  
Dew Point 68 °F    
Average Humidity 67    
Maximum Humidity 84    
Minimum Humidity 50    
Precipitation  
Precipitation 0.00 in 0.16 in 2.25 in (1964)
Month to date precipitation 0.41 2.48  
Year to date precipitation 27.51 38.35  
Snow  
Snow 0.00 in - 0.00 in ()
Month to date snowfall 0.0  
Since 1 July snowfall 0.0  
Since 1 September snowfall 0.0  
Snow Depth -    
Sea Level Pressure  
Sea Level Pressure 30.06 in    
Wind  
Wind Speed 5 mph (South)    
Max Wind Speed 14 mph    
Max Gust Speed 16 mph    
Visibility 10 miles    
Events      
T = Trace of Precipitation, MM = Missing Value Source: NWS Daily Summary

Daily Weather History Graph

Daily Weather History Graph

Search for Another Location

Airport or City:

Astronomy

Oct. 14, 2019 Rise Set
Actual Time 7:27 AM EDT 6:55 PM EDT
Civil Twilight 7:03 AM EDT 7:19 PM EDT
Nautical Twilight 6:34 AM EDT 7:47 PM EDT
Astronomical Twilight 6:06 AM EDT 8:15 PM EDT
Moon 7:45 PM EDT (10/14) 7:59 AM EDT (10/14)
Length of Visible Light 12h 16m
Length of Day
11h 27m
Waxing Gibbous, 99% of the Moon is Illuminated
Oct 14
Waxing Gibbous
Oct 21
Last Quarter
Oct 27
New
Nov 4
First Quarter
Nov 12
Full

Hourly Weather History & Observations

Time (EDT) Temp. Heat Index Dew Point Humidity Pressure Visibility Wind Dir Wind Speed Gust Speed Precip Events Conditions
12:53 AM 78.1 °F - 66.9 °F 68% 30.05 in 10.0 mi SSW 5.8 mph - N/A   Clear
1:53 AM 75.9 °F - 66.0 °F 71% 30.05 in 10.0 mi SW 5.8 mph - N/A   Clear
2:53 AM 73.0 °F - 66.9 °F 81% 30.04 in 10.0 mi SW 6.9 mph - N/A   Clear
3:53 AM 72.0 °F - 66.0 °F 81% 30.02 in 10.0 mi SW 4.6 mph - N/A   Clear
4:53 AM 72.0 °F - 64.9 °F 78% 30.04 in 10.0 mi WSW 4.6 mph - N/A   Overcast
5:53 AM 72.0 °F - 66.0 °F 81% 30.06 in 10.0 mi West 3.5 mph - N/A   Mostly Cloudy
6:53 AM 72.0 °F - 64.9 °F 78% 30.07 in 10.0 mi West 4.6 mph - N/A   Overcast
7:42 AM 72.0 °F - 64.9 °F 78% 30.07 in 10.0 mi Calm Calm - N/A   Mostly Cloudy
7:53 AM 72.0 °F - 64.9 °F 78% 30.08 in 10.0 mi Calm Calm - N/A   Scattered Clouds
8:53 AM 73.0 °F - 66.0 °F 79% 30.09 in 10.0 mi Calm Calm - N/A   Clear
9:53 AM 78.1 °F - 66.9 °F 68% 30.09 in 10.0 mi West 8.1 mph - N/A   Partly Cloudy
10:53 AM 80.1 °F 82.3 °F 66.9 °F 64% 30.08 in 10.0 mi WSW 6.9 mph - N/A   Clear
11:53 AM 80.1 °F 82.7 °F 68.0 °F 67% 30.08 in 10.0 mi SW 6.9 mph - N/A   Mostly Cloudy
12:53 PM 82.0 °F 85.5 °F 69.1 °F 65% 30.07 in 10.0 mi Variable 4.6 mph - N/A   Overcast
1:53 PM 84.9 °F 88.2 °F 68.0 °F 57% 30.05 in 10.0 mi Variable 5.8 mph - N/A   Mostly Cloudy
2:53 PM 87.1 °F 89.9 °F 66.9 °F 51% 30.03 in 10.0 mi SSW 6.9 mph - N/A   Clear
3:53 PM 82.9 °F 87.5 °F 71.1 °F 67% 30.03 in 10.0 mi ESE 10.4 mph - N/A   Overcast
4:53 PM 82.9 °F 87.0 °F 70.0 °F 65% 30.03 in 10.0 mi ESE 6.9 mph - N/A   Partly Cloudy
5:53 PM 82.0 °F 86.3 °F 71.1 °F 69% 30.03 in 10.0 mi ESE 5.8 mph - N/A   Partly Cloudy
6:53 PM 79.0 °F - 71.1 °F 77% 30.04 in 10.0 mi ESE 6.9 mph - N/A   Clear
7:53 PM 78.1 °F - 71.1 °F 79% 30.05 in 10.0 mi SE 5.8 mph - N/A   Partly Cloudy
8:53 PM 79.0 °F - 70.0 °F 74% 30.07 in 10.0 mi SSE 4.6 mph - N/A   Clear
9:53 PM 78.1 °F - 71.1 °F 79% 30.08 in 10.0 mi SSE 5.8 mph - N/A   Mostly Cloudy
10:53 PM 78.1 °F - 70.0 °F 76% 30.09 in 10.0 mi SE 5.8 mph - N/A   Clear
11:53 PM 79.0 °F - 71.1 °F 77% 30.09 in 10.0 mi South 4.6 mph - N/A   Clear